Temp_Advection
nan nan nan nan nan nan nan nan nan nan nan nan nan nan nan nan nan nan nan nan nan nan nan nan nan nan nan nan nan nan nan nan nan nan nan nan nan nan nan nan nan nan nan nan nan nan nan nan nan nan nan nan nan nan nan nan nan nan nan nan nan nan nan nan nan nan nan nan nan
nan -0 -0 -0 -0 -0 -0 -0 -0 -0 -0 -0 -0 -0 -0 -0 -0 -0 -0 0 -0 -0 -0 -0 -0 -0 -0 -0 -0 -0 -0 -0 -0 -0 0 0 0 1 1 1 1 0 0 -0 -0 -1 -1 -0 0 0 0 -0 -0 -1 -1 -1 -0 0 0 1 2 2 2 1 1 0 1 1 nan
nan -0 -0 -0 -0 -1 -1 -1 -0 -0 -0 -0 -0 -0 -0 -0 -0 -0 -0 -0 -0 -0 -0 -0 -0 -0 -0 -0 -0 -0 -0 -0 -0 -0 -0 -0 0 0 0 0 0 0 0 0 0 -0 -0 -0 0 0 0 -0 -0 -1 -1 -2 -1 -0 -0 -0 1 2 2 1 1 1 1 1 nan
nan -0 -0 -0 -0 -0 -0 -0 -0 -0 -0 -0 -0 -0 -0 -0 -0 -0 -0 -0 -0 -0 -0 -0 -0 -0 -0 -0 -0 -0 -0 -0 -0 -0 -0 -0 -0 -0 0 0 0 0 0 0 0 0 0 0 0 0 -0 -0 -0 -1 -1 -1 -1 -1 -1 -1 0 1 1 1 1 1 1 1 nan
nan -0 -0 -0 -0 -0 -0 -0 -0 -0 -0 -0 -0 -0 -0 -0 -0 -0 -0 -0 -0 -0 -0 -0 -0 -0 -0 -0 -0 -0 -0 -0 -0 -0 -0 -0 -0 -0 0 -0 0 0 0 0 0 1 1 1 1 1 -0 -0 -0 -1 -1 -0 0 0 -1 -1 -1 -0 -0 -0 0 0 1 1 nan
nan -0 -0 -0 -0 -0 -0 -0 -0 -0 -0 -0 -0 -0 -0 -0 -0 -0 -0 -0 -0 -0 -0 -0 -0 -0 -0 -0 -0 -0 -0 -0 -0 -0 -0 -0 -0 -0 -0 0 0 0 0 0 0 0 1 2 2 1 0 -0 -1 -1 -1 0 1 1 0 -0 -0 -1 -0 -1 -0 -0 0 0 nan
nan -0 -0 -0 -0 -0 -0 -0 -0 -0 -0 -0 -0 -0 -0 -0 -0 -0 -0 -0 -0 -0 -0 -0 -0 -0 -0 -0 -0 -0 -0 -0 -0 -0 -0 -0 -0 -0 -0 -0 0 0 0 0 0 0 0 1 2 2 1 0 -1 -1 -1 0 1 1 1 0 0 0 -0 -1 -1 -0 -1 -1 nan
nan -0 -0 -0 -0 -0 -0 -0 -0 -0 -0 -0 -0 -0 -0 -0 -0 -0 -0 -0 -0 -0 -0 -0 -0 -0 -0 -0 -0 -0 -0 -0 -0 -0 -0 -0 -0 -0 -0 -0 0 0 0 0 0 1 1 1 1 1 1 1 -0 -1 -1 -0 1 1 1 0 1 1 1 -0 -0 -0 -1 -1 nan
nan -0 -0 -0 -0 -0 -0 -0 -0 -0 -0 -0 -0 -0 -0 -0 -0 0 -0 -0 -0 -0 -0 -0 -0 0 -0 -0 -0 -0 -0 -0 -0 -0 -0 -0 -0 -0 -0 -0 -0 -0 0 0 0 1 1 1 1 1 1 1 0 -1 -1 0 1 1 0 0 0 1 1 1 0 -0 -0 -1 nan
nan -0 -0 -0 -0 -0 -0 -0 -0 -0 -0 0 0 0 0 0 0 0 0 0 0 -0 -0 0 0 -0 -0 -0 -0 0 0 -0 -0 -0 -0 -0 -0 -0 -0 -0 -0 -0 -0 -0 0 0 1 1 1 1 1 1 1 0 0 0 1 1 0 -0 -0 0 1 1 1 1 0 -0 nan
nan -0 -0 -0 -0 -0 -0 0 0 0 0 0 0 0 0 0 0 0 0 0 0 -0 -0 -0 -0 -0 -0 -0 -0 -0 -0 -0 -0 -0 -0 -0 -1 -0 -0 -0 -0 -0 -0 -0 -0 0 0 0 1 1 1 2 1 1 1 1 1 1 1 0 0 0 0 0 1 1 1 1 nan
nan -0 -0 -0 -0 -0 0 0 0 0 0 0 0 0 0 0 0 0 0 0 0 -0 -0 -0 -0 -0 -0 -1 -1 -1 -0 -0 -0 -1 -1 -1 -1 -1 -1 -1 -1 -1 -1 -0 -0 -0 -0 -0 -0 0 1 1 2 1 1 1 1 1 1 1 1 1 -0 -1 0 1 2 2 nan
nan -0 -0 -0 -0 -0 -0 0 0 -0 -0 0 0 -0 -0 -0 -0 0 -0 -0 -0 -0 -0 -0 -0 -0 -0 -0 -0 -1 -1 -1 -1 -1 -1 -1 -1 -1 -1 -1 -1 -1 -1 -1 -1 -1 -1 -1 -1 -1 -0 1 1 1 1 1 1 1 1 1 1 1 0 -0 0 1 2 2 nan
nan -0 -0 -0 -0 -0 -0 -0 -0 -0 -0 -0 -0 -0 -0 -0 -0 -0 0 0 0 -0 -0 -0 -0 -0 -0 -0 -0 -0 -0 -0 -0 -1 -1 -1 -1 -1 -1 -1 -1 -1 -1 -1 -1 -1 -1 -1 -1 -1 -1 -0 0 1 1 1 1 1 1 1 1 1 1 1 1 1 2 2 nan
nan 0 -0 -0 -0 -0 -0 -0 -0 -0 -0 -0 -0 -0 -0 -0 -0 0 0 0 0 0 -0 -0 -0 -0 -0 -0 0 0 0 -0 -0 -0 -1 -1 -1 -1 -1 -1 -1 -1 -1 -1 -1 -1 -1 -1 -1 -1 -1 -1 -1 -0 1 1 1 1 1 1 0 0 0 1 1 2 2 2 nan
nan 0 0 0 0 -0 -0 -0 -0 -0 -0 -0 -0 -0 0 0 0 0 0 0 0 0 0 0 -0 -0 -0 -0 0 0 0 -0 -0 -0 -0 -1 -1 -0 -0 -0 -0 -0 -0 -1 -1 -1 -0 -0 -0 -0 -1 -1 -1 -1 -0 0 0 1 1 0 0 0 -0 0 1 1 2 2 nan
nan 0 -0 -0 -0 0 0 -0 -0 -0 -0 -0 -0 -0 0 0 0 0 0 0 0 0 0 0 0 0 -0 -0 -0 0 0 -0 -0 -0 -0 -0 -0 -0 -0 -0 -0 -0 -0 -0 -0 -0 -0 0 0 1 0 -0 -1 -1 -1 -0 -0 -0 -0 0 0 -0 -0 -0 0 1 1 1 nan
nan -0 -0 -0 -0 -0 -0 -0 -0 -0 -0 -0 -0 -0 -0 -0 -0 -0 -0 -0 -0 -0 -0 -0 -0 0 0 -0 -0 0 0 -0 -1 -1 -1 -1 -1 -1 -1 -1 -0 -0 -0 -1 -1 -1 -1 -0 0 1 1 0 0 -0 -0 -0 -0 -1 -1 -1 -1 -1 -1 -0 0 1 1 1 nan
nan -0 -0 -0 -0 -0 -0 -0 -0 -0 -0 -0 -0 -0 -0 -0 -0 -0 -0 -0 -0 -0 -0 -0 -0 -0 -0 -0 -0 0 0 0 -1 -1 -1 -1 -1 -1 -1 -1 -1 -1 -1 -1 -1 -1 -1 -1 -0 0 0 0 0 0 0 0 -0 -0 -1 -1 -1 -2 -1 -1 -0 0 1 1 nan
nan -0 -0 -0 -0 -0 -0 -0 -0 -0 -0 -0 -0 -0 -0 -0 -0 -0 -0 -0 -0 -1 -1 -0 -0 -0 -0 -0 -0 0 0 0 0 -1 -1 -1 -1 -1 -1 -1 -1 -1 -1 -1 -1 -1 -1 -1 -1 -1 -0 -0 -0 0 0 1 0 -0 -0 -1 -1 -1 -1 -1 -1 0 0 1 nan
nan -0 -0 -0 -0 -0 -0 -0 -0 -0 -0 -0 -0 -0 -0 -0 -0 -0 -0 -0 -0 -0 -1 -1 -1 -1 -1 -0 -1 -0 -0 0 0 0 -1 -1 -1 -1 -2 -2 -2 -2 -2 -2 -2 -2 -1 -1 -1 -1 -1 -0 -0 -0 -0 -0 -0 -0 -1 -1 -1 -1 -1 -0 -0 0 0 1 nan
nan -0 -0 -0 -0 -0 -0 -0 -0 -0 -0 -0 -0 -0 -0 -0 -0 -0 -0 -0 -0 -0 -1 -1 -0 -1 -1 -0 -1 -1 -1 -1 -0 0 -0 -1 -1 -1 -2 -2 -2 -2 -2 -2 -2 -2 -2 -1 -1 -1 -1 -1 -1 -1 -1 -1 -1 -1 -2 -2 -2 -2 -1 -0 1 1 1 1 nan
nan -0 -0 -0 -0 -0 -0 -0 -0 -0 -0 -0 -0 -0 -0 -0 -0 -0 -1 -1 -1 -1 -1 -1 -1 -1 -1 -1 -1 -1 -1 -1 -1 -1 -0 -0 -1 -1 -1 -1 -2 -2 -2 -2 -2 -2 -2 -1 -1 -1 -1 -1 -1 -1 -1 -1 -1 -2 -3 -4 -3 -3 -2 -1 -0 1 1 1 nan
nan -0 -0 -0 -0 -0 -0 -0 -0 -0 -0 -0 -0 -0 -1 -1 -1 -1 -1 -1 -1 -1 -1 -1 -1 -1 -1 -1 -1 -1 -1 -1 -2 -2 -1 -1 -1 -1 -1 -1 -1 -1 -2 -2 -2 -1 -1 -1 -1 -1 -1 -1 -1 -1 -1 -1 -1 -2 -3 -4 -5 -6 -5 -4 -3 -1 -1 -0 nan
nan -0 -0 -0 -0 -0 -0 -0 -0 -0 -0 -0 -0 -0 -1 -1 -1 -1 -1 -1 -1 -1 -1 -1 -1 -1 -1 -1 -1 -1 -1 -1 -1 -2 -2 -1 -1 -1 -1 -1 -1 -1 -2 -2 -2 -1 -0 0 0 0 -0 -0 -0 -0 -0 -1 -1 -1 -1 -1 -3 -4 -5 -5 -4 -3 -2 -2 nan
nan -0 -0 -0 -0 -0 -0 -0 -0 -0 -0 -0 -1 -1 -1 -1 -1 -1 -1 -2 -2 -1 -1 -1 -1 -2 -1 -2 -2 -1 -1 -1 -1 -1 -1 -1 -1 -1 -1 -1 -1 -2 -2 -2 -1 -1 -1 0 1 1 1 0 0 0 0 -0 -0 -0 0 0 0 -1 -2 -3 -2 -2 -1 -1 nan
nan -0 -0 -0 -0 -0 -0 -0 -0 -0 -0 -0 -1 -1 -1 -1 -1 -1 -1 -1 -1 -1 -1 -1 -1 -1 -1 -1 -2 -2 -1 -1 -1 -1 -1 -1 -1 -1 -1 -1 -1 -2 -2 -2 -1 -1 -1 -0 0 1 1 1 1 0 0 0 -0 -0 0 0 0 0 -1 -1 -0 -0 -1 -1 nan
nan -0 -0 -0 -0 -0 -0 -0 -0 -0 -0 -0 -1 -1 -1 -1 -1 -1 -1 -1 -1 -1 -1 -1 -1 -1 -1 -1 -1 -1 -1 -1 -1 -1 -1 -1 -1 -1 -1 -1 -1 -1 -1 -1 -1 -1 -0 -0 0 0 1 1 1 0 0 0 0 -0 -0 0 0 0 -0 -0 -0 -0 -1 -1 nan
nan -0 -0 -0 -0 -0 -0 -0 -0 -0 -1 -1 -1 -1 -1 -1 -1 -1 -1 -1 -1 -1 -1 -1 -0 -0 -0 -1 -1 -1 -1 -1 -1 -1 -1 -0 -0 -1 -1 -1 -1 -1 -1 -1 -1 -0 -0 -0 0 0 0 1 0 0 0 0 0 0 -0 0 0 -0 -0 -0 -0 -1 -1 -1 nan
nan -0 -0 -0 -0 -0 -0 -0 -1 -1 -1 -1 -1 -1 -1 -1 -1 -1 -1 -1 -1 -0 -0 -0 -0 -0 -0 -0 -0 -1 -1 -0 -0 -0 -0 -0 -0 -0 -0 -0 -0 -0 -1 -1 -1 -0 -0 -0 0 0 -0 0 1 0 0 0 0 0 0 -0 -0 0 0 -0 -1 -1 -1 -1 nan
nan -0 -0 -0 -1 -1 -1 -1 -1 -1 -1 -1 -1 -1 -1 -1 -1 -1 -1 -1 -1 -1 -0 -0 -0 -0 -0 -0 -0 -0 -0 -0 -0 -0 -0 -0 -0 -0 -0 -0 -0 -0 -0 -1 -0 -0 -0 -0 -0 -0 -0 0 1 0 0 0 0 0 0 0 -0 -0 -0 -0 -1 -0 -1 -1 nan
nan -1 -1 -1 -1 -1 -1 -1 -1 -1 -1 -1 -1 -1 -1 -1 -1 -1 -1 -1 -1 -1 -1 -0 -0 -1 -1 -0 -0 -0 -0 -0 -0 -0 -0 -0 -0 -0 -0 -0 -0 -0 -0 -0 -0 -0 -0 -0 -0 -0 -0 0 0 0 0 0 0 0 0 0 0 -0 -1 -0 -0 -1 -1 -1 nan
nan -1 -2 -2 -2 -2 -2 -2 -2 -2 -1 -1 -1 -1 -1 -1 -1 -1 -1 -1 -1 -1 -1 -1 -0 -1 -1 -1 -0 -0 -0 -0 -0 -0 -0 -0 -0 -0 -0 -0 -0 -0 -0 -0 -0 -0 -0 -0 -0 -0 -0 0 0 0 0 0 0 0 0 0 -0 -0 -1 -0 -1 -1 -1 -1 nan
nan -2 -2 -2 -2 -2 -2 -2 -2 -1 -1 -1 -1 -1 -1 -1 -1 -2 -1 -1 -1 -0 -0 -0 -0 -0 -0 -0 -0 -0 -0 -0 -0 -0 -0 -0 -0 -0 -0 -0 -0 -0 -0 -0 -0 -0 -0 -0 -0 -0 -0 0 0 0 0 -0 0 0 0 0 0 -0 -1 -1 -1 -1 -0 -0 nan
nan -2 -2 -2 -2 -1 -1 -1 -1 -1 -1 -1 -1 -1 -1 -1 -1 -1 -1 -1 -1 -1 -1 -0 -0 -0 -0 -0 -0 -0 -0 -0 -0 -0 -0 -0 -0 -0 -0 -0 -0 -0 -0 -0 -0 -0 -0 -0 -0 -0 -0 0 0 0 0 -0 0 0 0 0 0 -0 -0 -0 -0 -1 -1 -0 nan
nan -1 -1 -1 -1 -1 -1 -1 -1 -0 -0 -1 -1 -1 -1 -1 -1 -1 -1 -1 -0 -0 -1 -1 -0 -0 -0 -0 -0 -0 -0 -0 -0 -0 -0 -0 -0 -0 -0 -0 -0 -0 -0 -0 0 -0 -0 -0 -0 -0 -0 -0 0 0 -0 -0 0 0 0 -0 0 -0 -0 -0 -0 -0 -0 -0 nan
nan -0 -1 -1 -1 -0 -0 -0 -0 -0 -0 -0 -0 -0 -0 -0 -0 -0 -0 -0 -0 -0 -0 -1 -1 -0 -0 -0 -0 -0 -0 -0 -0 -0 -0 -0 -0 -0 -0 -0 -0 -0 -0 0 0 -0 -0 -0 -0 -0 -0 -0 -0 0 0 0 -0 -0 0 0 -0 -0 -0 -0 -0 -1 -1 -1 nan
nan 0 -0 -0 -0 -0 -0 -0 -0 -0 -0 -0 -0 -0 -0 -0 -0 -0 -0 -0 -0 -0 -0 -0 -0 -0 -0 -0 -0 -0 -0 -0 -0 -0 -0 -0 -0 -0 -0 -0 -0 -0 -0 0 0 0 0 -0 -0 -0 -0 0 -0 -0 -0 0 0 -0 -0 -0 -0 -0 -0 -1 -1 -1 -1 -1 nan
nan 0 0 -0 -0 -0 -0 -0 -0 -0 -0 0 0 0 0 0 -0 -0 -0 0 0 0 -0 -0 -0 -0 -0 -0 -0 -0 -0 -0 -0 -0 -0 0 -0 -0 -0 -0 -0 0 0 0 -0 -0 0 0 -0 -0 -0 0 0 0 -0 -0 -0 -0 -0 0 0 0 0 -0 -1 -1 -1 -1 nan
nan 0 0 0 0 -0 -0 -0 -0 -0 -0 0 0 0 0 0 0 0 0 0 0 0 0 -0 -0 -0 -0 -0 -0 -0 -0 -0 -0 -0 -0 -0 0 0 -0 0 0 -0 0 0 0 0 0 0 -0 -0 -0 0 0 -0 -0 -0 -0 -0 0 0 1 1 0 -0 -0 -1 -1 -0 nan
nan nan nan nan nan nan nan nan nan nan nan nan nan nan nan nan nan nan nan nan nan nan nan nan nan nan nan nan nan nan nan nan nan nan nan nan nan nan nan nan nan nan nan nan nan nan nan nan nan nan nan nan nan nan nan nan nan nan nan nan nan nan nan nan nan nan nan nan nan
Wind_Speed
22 24 25 26 27 28 28 27 26 24 23 21 20 19 19 20 20 21 22 23 23 24 25 25 26 26 26 26 26 26 26 26 27 27 27 27 27 28 28 29 30 31 32 33 33 34 34 34 35 35 36 36 36 36 36 36 35 35 35 35 35 35 35 35 36 36 36 36 36
24 25 26 27 27 27 27 26 24 22 21 20 19 19 20 20 21 22 23 23 24 25 26 26 26 27 27 27 27 27 27 27 27 27 27 27 27 28 28 29 29 30 31 32 32 33 34 34 35 35 36 36 37 37 37 38 37 37 37 37 37 36 36 36 36 37 37 37 37
24 25 26 26 26 25 24 23 22 21 20 20 20 20 20 21 22 23 24 24 25 26 26 27 27 27 27 27 27 27 27 28 28 28 28 28 28 28 29 29 30 30 31 31 32 32 33 34 34 35 36 36 37 38 38 39 39 39 39 39 39 38 38 38 38 38 37 37 37
25 25 25 24 23 23 22 21 21 20 20 20 20 21 22 23 23 24 25 25 26 26 27 27 27 28 28 28 28 28 28 28 29 29 29 29 30 30 30 30 31 32 32 32 32 33 33 33 34 35 35 36 37 38 38 39 39 39 40 40 40 40 40 40 40 39 39 39 39
24 24 23 23 22 21 21 20 20 20 20 21 22 22 23 24 25 25 26 26 27 27 27 27 28 28 29 29 29 29 30 30 30 30 31 31 32 32 32 33 33 33 34 34 34 34 34 34 34 34 35 36 37 38 38 39 39 39 40 41 41 41 41 42 41 41 41 41 40
23 22 22 21 21 21 20 20 20 21 21 22 22 23 24 25 26 26 27 27 28 28 28 28 29 29 30 30 31 31 32 32 32 33 33 34 34 35 35 35 35 36 36 36 36 36 35 35 35 35 36 36 37 38 39 39 39 40 40 41 41 41 42 42 42 42 42 42 42
21 21 20 20 20 20 20 21 21 21 22 23 23 24 25 25 26 27 27 28 29 29 30 30 31 31 32 32 33 33 34 34 35 35 36 36 37 37 37 37 37 37 37 37 37 37 37 37 36 36 37 37 38 39 40 40 40 40 41 41 41 41 42 42 43 43 43 43 44
20 20 20 20 20 20 20 21 22 22 23 24 24 25 26 26 27 28 29 29 30 31 32 32 33 33 34 35 35 36 36 37 37 38 38 39 39 39 39 39 39 39 38 38 38 38 38 38 38 38 38 38 39 40 41 41 41 41 41 42 42 42 42 42 43 43 44 44 45
19 19 20 20 20 21 21 22 22 23 24 24 25 26 26 27 28 29 30 31 32 33 33 34 34 35 36 36 37 37 38 38 39 39 39 40 40 40 40 40 40 40 39 39 39 39 39 39 39 39 39 39 40 41 41 41 41 42 42 42 42 43 42 42 43 43 44 44 45
19 20 20 20 21 21 22 23 23 24 24 25 26 27 27 28 29 30 31 32 33 34 34 35 36 36 37 37 38 38 38 39 39 40 40 40 40 40 40 40 40 40 40 40 40 40 40 40 40 40 40 40 40 41 41 41 41 41 42 42 42 43 43 43 42 42 43 44 45
20 20 21 21 22 23 23 24 24 25 26 26 27 28 28 29 30 31 32 33 34 35 35 35 36 37 37 38 38 38 39 39 39 40 40 40 40 40 40 40 40 40 40 40 40 40 40 41 41 41 41 41 40 40 41 41 41 41 41 42 42 42 43 43 42 42 42 43 44
20 21 22 23 23 24 25 25 26 26 27 27 28 29 29 30 31 32 32 33 34 35 35 35 36 37 37 38 38 38 39 39 39 39 40 40 40 40 40 40 40 40 40 40 40 40 40 41 41 42 42 42 41 41 41 40 40 40 41 41 41 42 42 43 43 42 42 42 43
22 23 23 24 25 26 26 27 27 28 28 28 29 30 30 31 32 32 33 34 34 35 35 36 36 37 37 38 38 38 39 39 39 39 39 40 40 40 40 40 40 40 40 39 39 40 40 40 41 41 42 42 42 42 41 41 40 40 40 41 41 41 42 42 42 42 42 42 42
23 24 25 26 26 27 27 28 28 29 29 29 30 30 31 32 32 33 33 34 35 35 36 36 36 37 37 37 38 38 38 39 39 39 39 39 39 39 39 39 39 39 39 39 39 39 39 40 40 41 41 42 42 42 42 41 41 40 40 40 40 41 41 41 41 41 41 41 42
25 25 26 27 27 27 28 28 28 29 29 30 30 31 32 32 33 33 34 34 35 35 36 36 37 37 37 38 38 38 39 39 39 39 39 40 39 39 39 39 39 39 38 38 38 38 39 39 39 40 40 41 41 42 42 41 41 41 41 41 41 41 41 41 41 40 40 41 41
26 26 27 27 27 27 28 28 29 29 30 30 31 32 32 33 34 34 34 35 35 36 36 37 38 38 39 39 39 39 40 40 40 40 40 40 40 40 39 39 39 39 39 38 38 38 39 39 39 39 40 41 41 41 41 41 41 41 41 41 41 41 41 41 41 41 41 41 41
27 27 27 27 27 27 28 28 29 29 30 31 32 32 33 34 34 35 35 36 36 37 38 39 39 40 41 41 41 41 42 42 42 42 42 42 41 41 41 40 40 40 39 39 39 39 39 39 39 39 40 40 41 41 41 41 41 41 41 41 41 41 42 42 42 41 41 42 42
28 28 28 28 27 28 28 28 29 30 31 31 32 33 34 34 35 36 36 37 38 39 40 41 42 43 43 44 44 44 44 44 44 43 43 43 43 43 42 42 42 41 41 41 40 40 40 40 40 40 41 41 41 42 42 42 42 42 42 42 42 42 42 42 42 42 42 42 43
28 28 28 28 28 28 28 29 30 30 31 32 33 33 34 35 36 36 37 38 39 41 42 44 45 46 46 47 47 47 46 46 45 45 45 44 44 44 43 43 43 42 42 42 42 42 41 41 41 41 42 42 42 42 42 42 42 42 42 42 42 42 43 43 43 43 43 43 43
28 28 28 28 28 29 29 30 30 31 32 32 33 34 34 35 36 37 39 40 41 42 44 46 47 48 48 49 49 49 48 48 47 47 47 46 46 45 44 44 43 43 43 43 43 43 43 42 42 42 42 43 43 43 43 43 43 43 43 43 43 43 43 43 43 43 43 43 43
28 28 28 29 29 29 30 31 31 32 32 33 33 34 35 36 37 39 40 41 43 44 45 47 48 49 50 50 50 50 50 50 49 49 49 48 47 46 45 44 43 43 43 43 43 43 43 43 43 43 43 43 43 43 43 43 43 43 43 43 43 43 43 43 43 43 43 43 43
29 29 29 29 30 30 31 31 32 33 33 34 34 35 37 38 39 41 42 43 44 45 47 48 49 49 50 50 50 51 51 51 51 50 50 49 48 47 45 44 43 43 43 43 43 43 43 43 43 43 43 43 43 43 43 42 43 43 43 44 44 44 44 44 44 43 43 43 43
29 30 30 30 31 31 32 32 33 34 34 35 36 37 39 40 42 43 44 45 46 47 48 49 49 50 50 51 51 51 51 52 51 51 50 49 47 46 45 43 42 42 42 42 42 42 42 43 43 43 42 42 42 42 42 42 42 42 43 44 44 45 45 45 45 45 45 44 44
30 30 31 31 32 32 33 34 34 35 36 37 39 40 42 43 44 45 46 47 48 49 49 50 50 51 51 51 51 51 51 50 50 50 49 47 46 45 44 43 42 42 42 42 42 42 41 41 41 41 41 41 40 40 40 40 40 41 42 43 44 45 46 46 46 46 46 46 46
31 31 32 32 33 34 34 35 36 38 39 40 42 43 44 45 46 47 48 49 50 50 51 51 51 51 51 51 50 50 49 48 47 47 46 46 45 44 43 43 42 42 42 42 42 41 41 40 39 39 38 38 38 37 37 38 38 39 40 41 43 44 45 46 46 47 47 47 46
32 32 33 33 34 35 36 37 39 40 42 43 44 46 46 47 48 49 50 51 51 51 51 51 51 50 50 49 48 47 46 45 44 44 44 44 44 44 43 43 42 42 42 42 42 41 40 40 38 37 36 35 35 36 37 37 38 39 40 41 42 43 44 45 45 45 45 45 44
33 33 34 35 36 37 39 40 42 43 45 46 47 47 48 49 50 50 51 51 52 51 51 50 49 48 47 46 45 44 44 43 43 43 43 43 43 43 42 42 42 42 42 41 41 41 40 39 37 35 34 34 34 35 37 38 39 40 40 41 41 42 43 43 43 43 43 42 41
34 35 36 38 39 40 42 43 44 45 46 47 48 49 50 50 51 51 51 51 51 50 49 48 46 45 44 43 42 42 42 43 42 42 42 41 41 41 41 41 40 40 40 40 40 40 39 38 37 36 35 34 34 35 36 37 38 38 39 40 40 40 40 40 40 40 40 40 39
36 37 39 40 42 43 44 45 46 47 48 49 49 50 51 51 51 51 50 50 49 48 47 46 44 43 42 41 42 42 42 42 41 40 40 40 39 39 39 39 39 39 39 39 39 39 39 38 37 36 35 34 34 34 35 35 36 37 38 39 40 39 39 39 39 38 38 39 39
39 40 42 43 44 45 46 47 48 49 49 50 50 50 50 50 50 49 49 48 47 46 45 44 43 42 42 42 42 41 41 40 39 39 38 38 38 38 38 38 38 39 39 39 40 40 39 38 37 35 34 34 33 33 34 35 36 37 38 39 39 39 39 39 39 39 39 39 40
41 43 44 45 46 47 48 49 49 49 50 50 49 49 49 48 48 48 47 46 46 46 45 44 43 42 42 41 40 40 39 39 38 37 37 37 38 38 38 38 38 38 39 39 39 39 38 37 35 35 34 34 33 33 34 35 36 37 38 40 40 40 40 40 40 40 40 40 40
43 44 46 46 47 48 49 49 49 49 49 48 48 47 47 47 47 47 47 46 46 45 44 43 42 41 41 40 39 38 38 38 38 37 37 37 37 37 38 37 37 37 38 38 38 37 36 35 35 34 34 34 33 34 34 35 36 37 38 39 40 40 40 40 40 40 40 39 39
44 45 46 46 47 48 48 48 48 48 47 47 46 46 46 47 47 47 46 45 44 43 42 41 40 40 39 39 39 38 38 38 37 37 37 36 36 36 36 36 36 37 38 38 37 36 35 35 35 35 34 34 34 34 34 35 36 36 36 37 38 38 39 39 39 39 39 39 39
44 44 45 45 46 46 46 46 46 46 45 45 45 45 45 45 45 45 45 44 42 41 40 39 39 39 38 38 38 38 38 37 37 36 35 35 35 35 35 36 36 37 38 38 37 36 35 34 35 35 34 34 34 34 34 35 35 35 36 36 37 37 37 37 38 38 38 38 38
41 42 42 43 43 44 44 44 44 44 44 44 44 45 44 44 43 43 42 42 41 40 39 39 39 38 38 38 37 37 36 36 36 35 34 34 35 35 36 36 37 37 38 37 36 35 34 34 34 34 34 34 34 34 34 34 34 34 34 35 36 36 36 35 35 35 36 36 35
38 38 39 40 42 42 43 43 43 43 43 43 43 43 43 42 41 41 40 40 40 39 39 39 38 38 37 37 36 35 35 35 35 35 35 34 35 35 36 37 37 37 37 37 36 35 34 34 34 34 33 33 33 33 33 33 33 33 34 34 34 34 34 33 34 34 34 34 34
35 36 38 40 41 42 42 42 42 42 41 41 41 41 41 41 40 40 39 39 38 38 38 38 37 37 36 36 36 35 35 34 35 35 35 35 35 35 36 37 37 37 37 37 36 35 34 34 33 33 32 32 32 32 33 33 33 33 33 33 33 33 33 33 34 34 35 35 34
35 36 38 39 40 41 41 41 41 40 40 40 40 39 39 39 39 39 38 37 37 37 37 37 36 36 36 36 36 35 35 35 34 35 35 35 35 35 35 36 37 37 37 37 36 35 34 33 33 32 31 31 31 31 31 32 32 32 32 33 33 34 34 34 35 35 34 34 32
35 36 38 39 40 40 40 40 39 39 39 39 39 38 38 37 37 37 36 36 35 35 35 35 35 35 35 35 35 35 35 35 35 35 35 35 35 35 35 36 37 37 37 36 35 34 33 32 32 31 30 29 29 30 30 30 31 31 32 32 33 34 34 35 34 34 33 32 31
35 36 37 38 39 39 39 39 38 38 38 38 38 37 37 36 36 36 35 34 33 33 34 34 35 35 35 35 35 36 36 36 36 35 35 35 35 35 35 35 36 36 36 34 33 32 32 31 30 29 28 28 28 28 29 30 31 31 32 32 33 34 35 34 34 33 32 32 32
36 37 37 38 38 38 38 38 37 37 37 36 36 36 35 35 35 34 34 34 33 33 34 34 35 36 36 35 35 36 37 37 37 36 35 35 35 35 34 34 35 34 34 32 31 31 31 31 29 28 27 26 27 28 29 30 30 30 31 33 34 35 35 34 33 32 32 33 35
Wind_Direction
314 315 315 315 316 316 317 317 317 317 316 315 314 314 314 315 315 317 317 318 318 318 318 318 317 317 317 317 317 317 316 315 315 314 313 312 311 310 310 309 308 308 307 306 305 303 301 299 297 295 293 291 290 289 289 289 289 290 290 289 289 287 285 283 281 280 280 279 278
313 314 315 316 316 317 318 318 318 318 317 316 315 314 315 315 316 316 317 317 317 317 317 317 317 317 317 317 316 316 315 314 314 314 313 313 313 313 313 312 311 310 309 308 307 305 303 301 299 297 294 292 290 290 289 289 289 289 289 289 289 287 285 283 282 282 282 280 279
313 314 315 317 318 319 319 319 319 318 317 315 315 315 315 315 315 316 316 316 316 316 316 316 316 316 316 316 315 315 314 313 313 312 312 312 312 313 313 313 313 313 312 310 309 307 305 303 300 297 295 293 291 291 290 290 289 289 289 289 288 286 285 284 284 283 282 280 279
313 315 316 318 319 319 319 319 318 317 315 315 314 314 314 314 314 314 314 314 315 315 315 315 315 314 314 314 313 313 312 312 311 311 310 310 310 311 311 312 312 312 311 311 309 308 306 304 301 297 295 293 292 291 291 291 290 289 289 288 287 286 285 284 284 283 282 281 280
315 317 318 319 319 319 318 318 317 315 314 314 314 314 314 313 313 313 313 313 313 313 313 313 312 312 312 311 311 310 310 310 309 309 309 309 309 309 309 309 310 310 310 309 309 308 306 304 300 296 294 293 292 292 292 292 291 290 288 287 286 285 284 284 283 282 282 281 281
317 319 320 320 321 320 319 318 316 315 314 313 314 314 313 313 313 312 311 311 310 310 310 310 309 309 309 308 308 308 308 308 307 307 307 307 308 308 308 308 308 308 308 308 307 306 305 303 299 296 294 293 292 293 293 293 292 290 289 287 286 285 284 284 283 282 282 281 281
319 320 321 321 321 320 319 318 316 315 314 314 314 313 313 311 311 310 309 308 308 308 308 307 307 307 307 306 306 306 306 306 306 306 307 307 307 307 307 307 307 307 307 306 306 305 304 302 299 296 294 292 292 293 294 294 292 291 289 288 286 285 283 283 282 282 281 280 280
320 321 322 321 321 320 319 318 317 316 315 315 314 313 312 311 310 308 308 307 307 307 307 307 307 306 307 307 306 307 307 307 307 307 307 307 307 307 307 307 306 306 306 306 305 304 303 301 298 296 294 292 292 292 293 293 292 291 289 288 287 285 283 282 281 281 280 280 280
321 322 322 322 321 321 320 319 318 317 316 316 315 314 313 311 310 309 309 308 308 308 308 308 308 308 308 308 308 308 308 308 308 307 307 307 307 307 307 306 306 306 305 305 304 303 302 300 298 296 294 293 292 292 292 291 291 290 288 288 287 285 284 282 280 279 279 279 279
321 321 322 322 322 321 321 320 319 318 317 317 316 315 314 313 312 311 311 311 311 311 311 311 311 311 311 310 310 310 309 309 309 308 308 308 307 307 307 306 306 305 305 304 304 303 302 300 299 297 295 294 292 292 291 290 289 288 287 286 286 285 284 282 280 279 278 277 277
320 321 321 322 322 321 321 320 319 318 318 317 316 316 315 314 314 314 314 314 314 314 313 313 313 313 313 312 312 311 311 310 310 309 309 308 308 307 307 307 306 305 305 304 304 303 302 300 299 298 297 295 294 292 291 290 288 287 286 285 285 284 283 282 281 279 277 276 276
320 321 321 321 321 321 320 320 319 319 318 318 318 317 317 317 317 316 316 316 316 315 315 315 314 314 313 313 312 312 312 311 311 310 310 309 309 308 307 307 306 305 305 304 304 303 302 301 300 299 298 297 296 294 292 291 289 287 286 285 284 283 282 282 282 281 279 277 275
320 321 321 322 321 321 321 320 320 320 320 320 320 320 320 319 319 319 318 317 317 316 316 315 314 314 313 313 313 312 312 311 311 310 310 309 309 308 308 307 306 306 305 304 304 303 302 301 300 299 299 298 297 295 294 293 291 289 288 287 285 284 283 283 283 283 282 279 276
321 322 322 322 322 322 321 321 321 322 322 322 323 322 322 321 321 320 319 319 318 317 316 315 315 314 313 313 313 312 312 311 310 310 309 309 309 308 307 307 306 306 305 304 304 303 302 301 300 299 299 298 297 296 295 295 293 292 290 289 288 287 286 285 285 285 283 281 279
322 322 322 322 322 322 322 323 323 323 324 324 324 324 323 322 322 321 320 319 318 318 317 316 315 315 314 313 313 312 311 311 310 310 309 309 308 308 307 307 306 305 305 304 303 302 301 301 300 299 298 298 297 296 296 295 294 293 292 291 290 289 288 288 287 285 283 282 280
322 322 322 322 322 322 322 323 323 324 324 324 324 324 323 323 322 322 321 320 319 318 318 317 316 316 315 314 314 313 312 312 311 311 310 310 309 308 307 306 306 305 304 303 303 302 301 300 300 299 299 298 297 297 296 296 295 295 294 293 292 291 290 288 287 286 284 283 281
322 321 321 321 321 321 322 322 323 323 323 323 324 323 323 323 322 322 321 320 320 319 318 318 317 317 316 316 315 314 314 313 312 312 311 311 310 309 308 307 306 305 305 304 303 302 301 301 300 300 299 299 298 298 297 297 296 295 294 293 292 291 290 289 288 286 285 283 281
320 320 320 320 320 320 321 321 321 322 322 322 322 322 322 322 321 321 320 320 319 319 319 318 317 317 316 316 315 315 314 314 313 313 312 312 311 310 309 308 308 307 306 305 304 303 303 302 302 301 301 300 300 299 299 298 297 296 295 294 292 291 290 289 287 286 285 284 282
319 319 318 318 319 319 319 319 320 320 320 320 320 320 320 320 319 319 319 318 318 318 317 317 316 316 315 315 315 314 314 314 314 313 313 312 312 311 310 310 309 308 307 307 306 306 305 304 304 303 302 302 301 300 300 299 298 297 296 294 293 291 290 289 287 286 285 284 283
317 317 317 317 317 317 317 317 317 317 317 317 317 318 317 317 317 317 317 316 316 316 315 315 314 314 314 314 314 313 313 313 313 313 313 313 312 312 312 311 310 309 309 308 308 308 307 306 306 305 304 303 302 301 300 299 298 297 296 295 293 292 290 289 288 286 285 285 284
316 315 315 315 315 315 315 315 315 315 315 315 315 315 315 315 315 315 315 314 314 313 313 312 312 312 312 312 313 312 312 312 312 312 312 312 313 313 312 312 311 310 309 309 309 308 308 307 307 306 304 303 302 301 300 299 298 297 296 295 293 292 291 290 288 288 287 286 285
314 313 313 313 313 313 313 313 313 313 313 313 313 313 314 313 313 313 313 312 312 312 311 311 311 311 311 312 312 312 311 311 311 311 312 312 312 312 312 312 311 310 309 308 308 308 308 308 307 306 304 303 302 301 300 299 298 297 296 295 294 293 292 291 290 289 288 288 287
312 312 311 311 311 311 311 311 311 312 312 312 312 312 312 312 312 312 311 311 311 311 311 311 311 311 311 311 311 311 311 311 311 311 311 311 311 311 311 310 309 308 307 307 307 308 308 307 306 305 304 303 301 300 300 299 298 297 296 296 295 295 294 293 292 292 291 290 290
310 310 310 310 310 310 310 311 311 311 311 311 311 311 311 311 311 311 311 311 311 311 312 312 312 312 312 311 311 311 311 311 310 310 310 310 309 309 309 308 307 306 305 306 307 307 307 306 305 304 302 301 300 299 298 297 296 296 296 296 296 296 295 295 294 294 293 293 292
309 309 309 309 309 310 310 310 310 311 311 311 311 311 311 311 311 312 312 312 312 313 313 313 313 312 312 312 311 311 310 310 310 309 309 308 308 307 307 306 305 305 305 306 307 307 306 305 303 301 299 298 297 296 295 293 293 292 292 292 292 292 292 292 292 292 293 293 293
308 308 308 309 309 309 310 310 310 310 310 310 311 311 312 312 313 314 314 314 314 314 314 314 314 313 312 312 311 310 310 309 308 308 307 306 306 306 306 305 305 304 305 306 306 306 306 304 301 299 296 294 292 291 290 289 288 288 288 288 287 287 287 288 289 290 290 291 292
308 308 308 309 309 309 310 310 310 310 311 311 312 313 314 314 315 315 316 316 316 316 315 315 314 313 312 311 310 309 308 308 307 306 306 305 305 305 305 304 304 304 304 305 305 305 304 302 299 296 293 291 289 288 287 287 287 287 286 286 286 286 286 286 287 288 289 289 290
308 308 308 309 309 309 310 310 311 312 312 313 314 315 316 316 317 317 317 317 317 316 315 314 313 312 310 309 308 308 308 307 307 306 305 305 304 303 303 302 302 302 302 302 303 302 301 299 297 295 292 290 289 287 287 286 286 286 286 286 286 286 286 286 286 287 287 288 288
307 308 308 309 309 310 310 311 312 313 314 315 316 317 317 317 317 317 317 317 316 315 314 313 312 310 309 308 308 308 308 307 307 306 304 303 302 301 300 299 299 299 299 300 300 300 299 298 297 295 293 292 290 288 287 286 286 286 285 285 285 285 285 284 285 285 285 285 286
307 308 309 309 310 311 312 313 314 315 316 317 318 318 318 318 317 317 316 316 315 314 313 313 312 310 309 309 309 308 307 306 305 304 302 300 299 298 297 297 297 297 298 299 299 299 299 298 297 295 294 293 291 289 287 286 285 285 285 284 284 284 284 284 284 284 284 284 284
307 308 309 310 311 313 314 315 316 317 318 319 318 318 317 317 316 316 315 315 314 314 314 313 312 311 310 310 308 307 305 304 303 301 300 298 298 297 297 297 296 297 298 298 299 299 298 297 296 295 294 293 292 289 288 286 286 285 284 284 283 283 283 283 283 284 284 284 284
309 310 311 313 314 315 316 317 318 319 319 318 318 317 316 316 315 315 315 315 315 314 314 313 312 311 310 309 307 306 304 303 302 300 299 298 297 297 297 296 296 296 297 298 298 298 297 296 295 295 294 294 292 290 288 287 286 284 284 283 283 283 284 284 284 284 284 284 284
312 313 314 315 316 317 318 318 318 318 318 317 316 316 315 315 315 315 315 315 315 314 313 311 310 309 308 307 306 305 304 302 301 300 300 298 297 297 296 296 296 296 297 298 297 297 296 296 295 295 295 294 293 291 289 288 286 285 284 283 283 284 284 284 285 285 285 284 284
314 315 316 316 317 317 317 317 317 317 316 315 315 315 315 314 314 314 314 314 313 312 311 309 308 307 307 306 305 304 303 302 301 300 299 298 297 296 296 295 295 296 297 298 297 297 296 296 296 296 295 295 293 292 290 289 288 287 286 285 285 285 285 285 285 285 285 285 286
316 316 316 316 316 316 316 316 315 315 314 314 313 314 314 313 313 313 313 312 312 310 309 309 308 307 306 305 304 303 302 301 300 299 298 297 297 296 296 296 296 297 297 297 297 297 296 296 296 296 296 295 294 293 292 291 290 290 289 289 289 289 289 288 288 288 289 291 293
314 313 313 313 313 314 314 314 314 313 313 312 312 312 312 312 311 311 311 311 310 309 308 308 308 307 306 305 304 302 301 300 299 299 298 297 297 297 297 296 297 297 297 297 297 297 297 297 297 297 297 296 295 294 293 293 293 292 292 292 292 293 293 294 295 296 298 299 300
310 310 311 311 312 312 312 312 312 311 311 310 310 310 310 310 310 310 310 310 309 308 308 307 307 306 305 304 303 302 301 300 299 299 298 298 297 297 297 297 297 297 297 297 297 297 298 298 298 298 297 297 296 296 295 295 295 295 295 296 296 297 299 300 301 302 302 302 300
308 309 309 310 311 311 311 311 310 310 309 309 309 309 309 309 308 308 308 308 307 307 306 306 305 305 304 303 302 301 300 299 299 298 298 298 297 297 296 296 297 297 297 298 298 298 299 299 299 298 298 297 297 296 296 296 296 297 298 299 300 301 302 303 302 302 302 301 299
307 308 309 309 309 310 310 309 309 308 308 308 308 308 308 307 307 307 307 306 306 305 304 304 303 303 303 302 301 300 300 299 299 298 298 298 297 297 296 296 296 297 298 298 299 299 299 299 299 299 298 298 297 297 297 297 297 298 299 300 301 302 302 303 302 301 299 298 295
307 307 308 308 308 308 308 308 308 307 307 307 307 307 307 306 306 306 306 305 304 303 303 302 302 302 302 301 301 300 300 300 300 299 298 298 298 297 297 296 296 297 298 299 299 299 299 299 299 299 298 298 297 298 297 297 297 297 298 300 302 302 303 302 301 299 296 295 294
306 306 307 307 307 307 307 307 307 307 307 307 306 306 306 306 305 305 304 304 303 303 302 301 301 302 302 302 301 300 300 300 300 300 299 298 298 298 297 297 297 297 298 299 299 299 299 299 299 299 299 298 298 298 297 297 297 298 300 303 304 304 303 301 299 297 296 296 297
Height
1538 1537 1537 1536 1535 1534 1534 1533 1532 1532 1531 1530 1529 1528 1528 1527 1526 1525 1524 1524 1523 1522 1521 1520 1519 1519 1518 1517 1516 1515 1514 1513 1512 1511 1510 1509 1509 1508 1506 1505 1504 1503 1501 1500 1499 1498 1497 1496 1495 1494 1492 1491 1490 1489 1488 1488 1487 1487 1486 1485 1484 1483 1482 1481 1480 1479 1479 1478 1477
1537 1536 1535 1534 1534 1533 1532 1531 1531 1530 1529 1529 1528 1527 1526 1525 1525 1524 1523 1523 1522 1521 1520 1519 1518 1517 1516 1515 1514 1514 1513 1512 1511 1510 1509 1508 1507 1506 1505 1504 1503 1501 1500 1499 1498 1496 1495 1494 1493 1491 1490 1489 1488 1486 1486 1485 1485 1484 1483 1482 1481 1480 1479 1478 1477 1477 1476 1476 1475
1536 1535 1534 1533 1532 1531 1530 1529 1529 1529 1528 1527 1527 1526 1525 1524 1524 1523 1522 1521 1520 1519 1519 1517 1516 1515 1515 1514 1513 1512 1511 1510 1509 1508 1507 1506 1505 1504 1504 1502 1501 1500 1499 1497 1496 1495 1494 1492 1491 1489 1488 1486 1485 1484 1483 1483 1482 1482 1481 1480 1479 1478 1477 1476 1475 1474 1474 1473 1473
1534 1534 1533 1532 1531 1530 1529 1529 1528 1527 1527 1526 1525 1524 1524 1523 1522 1521 1520 1520 1519 1518 1517 1516 1515 1514 1513 1512 1511 1510 1509 1509 1508 1507 1506 1505 1504 1503 1502 1501 1499 1498 1497 1496 1494 1493 1492 1490 1489 1487 1486 1484 1483 1482 1481 1480 1480 1479 1478 1477 1476 1475 1474 1473 1472 1472 1471 1470 1469
1533 1532 1531 1531 1530 1529 1529 1528 1527 1526 1525 1525 1524 1523 1522 1521 1521 1520 1519 1518 1517 1516 1515 1514 1514 1512 1511 1510 1510 1509 1508 1507 1506 1505 1504 1503 1502 1501 1500 1499 1498 1497 1495 1494 1493 1491 1490 1489 1487 1485 1483 1482 1481 1480 1479 1478 1478 1476 1475 1474 1473 1472 1471 1470 1469 1469 1468 1467 1466
1532 1531 1530 1529 1529 1528 1527 1527 1526 1525 1524 1524 1523 1522 1521 1520 1519 1518 1517 1516 1515 1514 1514 1513 1512 1511 1510 1509 1508 1507 1506 1505 1504 1503 1502 1501 1499 1499 1498 1497 1495 1494 1493 1492 1491 1489 1488 1487 1484 1483 1481 1479 1478 1477 1476 1476 1475 1474 1472 1471 1470 1469 1468 1467 1466 1466 1465 1464 1464
1530 1530 1529 1528 1527 1527 1526 1525 1524 1524 1523 1522 1521 1521 1520 1519 1518 1517 1516 1514 1514 1513 1512 1511 1510 1509 1508 1507 1506 1505 1504 1503 1502 1500 1499 1498 1497 1496 1495 1494 1493 1492 1491 1489 1488 1487 1486 1484 1482 1480 1479 1477 1476 1474 1474 1473 1472 1471 1470 1469 1467 1466 1465 1464 1463 1463 1462 1461 1460
1529 1528 1528 1527 1526 1525 1525 1524 1523 1523 1522 1521 1520 1519 1518 1517 1516 1515 1514 1513 1512 1511 1510 1509 1508 1507 1506 1505 1504 1502 1501 1500 1499 1498 1497 1496 1494 1493 1492 1491 1490 1489 1488 1487 1486 1484 1483 1482 1480 1478 1476 1475 1473 1472 1471 1470 1469 1468 1467 1466 1464 1464 1463 1462 1460 1459 1459 1458 1457
1528 1527 1526 1525 1525 1524 1524 1523 1522 1521 1520 1519 1519 1518 1517 1516 1515 1514 1513 1511 1510 1509 1508 1507 1506 1505 1504 1502 1501 1500 1499 1498 1496 1495 1494 1493 1492 1490 1489 1488 1487 1486 1485 1484 1483 1482 1480 1479 1477 1475 1474 1473 1471 1469 1468 1468 1466 1465 1464 1463 1462 1461 1460 1459 1458 1457 1456 1455 1454
1526 1526 1525 1524 1524 1523 1522 1521 1520 1519 1519 1518 1517 1516 1515 1514 1513 1512 1511 1509 1508 1507 1506 1505 1504 1502 1501 1500 1499 1497 1496 1495 1494 1492 1491 1490 1489 1488 1486 1485 1484 1483 1482 1481 1480 1479 1477 1476 1474 1473 1471 1470 1469 1467 1466 1465 1464 1462 1461 1459 1459 1458 1457 1456 1455 1454 1453 1452 1450
1525 1524 1524 1523 1522 1521 1520 1519 1519 1518 1517 1516 1515 1514 1514 1512 1511 1510 1509 1508 1506 1505 1504 1503 1501 1500 1499 1497 1496 1495 1494 1492 1491 1489 1488 1487 1486 1485 1484 1482 1481 1480 1479 1478 1477 1475 1474 1472 1471 1470 1469 1467 1466 1464 1463 1462 1461 1459 1458 1456 1456 1454 1454 1453 1452 1452 1450 1449 1448
1524 1523 1522 1521 1521 1520 1519 1518 1517 1516 1515 1514 1514 1513 1512 1511 1509 1508 1507 1506 1504 1503 1502 1500 1499 1498 1496 1495 1494 1492 1491 1489 1488 1487 1485 1484 1483 1482 1481 1479 1478 1477 1476 1475 1474 1472 1471 1469 1468 1466 1465 1464 1463 1462 1460 1459 1458 1456 1455 1454 1453 1451 1450 1449 1449 1448 1448 1447 1445
1523 1522 1521 1520 1519 1518 1517 1516 1515 1514 1514 1513 1512 1511 1510 1509 1508 1507 1505 1504 1502 1501 1500 1499 1497 1496 1494 1493 1491 1490 1489 1487 1486 1484 1483 1481 1480 1479 1478 1476 1475 1474 1473 1472 1471 1469 1468 1466 1465 1464 1462 1461 1460 1459 1457 1456 1455 1453 1452 1450 1449 1448 1447 1446 1445 1445 1444 1444 1442
1521 1520 1519 1519 1518 1517 1516 1515 1514 1513 1512 1511 1510 1509 1508 1507 1506 1504 1503 1502 1500 1499 1498 1496 1495 1494 1492 1491 1489 1488 1486 1485 1483 1482 1480 1479 1478 1476 1475 1474 1472 1471 1470 1469 1468 1466 1465 1463 1462 1460 1459 1458 1456 1455 1454 1453 1452 1450 1449 1447 1446 1445 1444 1443 1442 1442 1441 1440 1439
1520 1519 1518 1517 1516 1515 1514 1513 1512 1511 1510 1509 1508 1507 1506 1505 1504 1503 1501 1500 1499 1497 1496 1494 1493 1491 1490 1489 1487 1485 1484 1482 1481 1479 1478 1476 1475 1474 1472 1471 1470 1468 1467 1466 1464 1463 1462 1460 1459 1457 1456 1454 1453 1452 1451 1449 1448 1447 1445 1444 1443 1442 1440 1439 1439 1438 1437 1436 1435
1519 1518 1517 1516 1515 1514 1513 1512 1511 1509 1509 1508 1506 1505 1504 1503 1502 1501 1499 1498 1496 1495 1494 1492 1491 1489 1488 1486 1485 1483 1482 1480 1479 1477 1475 1474 1473 1471 1470 1469 1467 1466 1464 1463 1462 1460 1459 1458 1456 1455 1453 1451 1450 1449 1447 1446 1445 1444 1442 1441 1439 1438 1437 1436 1435 1435 1434 1433 1432
1517 1516 1515 1514 1514 1513 1511 1510 1509 1508 1507 1506 1505 1504 1503 1501 1500 1499 1497 1496 1494 1493 1491 1490 1489 1487 1485 1484 1482 1481 1479 1477 1476 1474 1473 1471 1470 1469 1467 1466 1464 1463 1462 1460 1459 1458 1456 1455 1454 1452 1450 1449 1447 1445 1444 1443 1441 1440 1439 1437 1436 1435 1434 1433 1432 1431 1430 1429 1428
1516 1515 1514 1513 1512 1511 1510 1509 1508 1506 1505 1504 1503 1502 1500 1499 1498 1497 1495 1494 1493 1491 1489 1487 1486 1484 1483 1481 1479 1478 1477 1475 1473 1472 1470 1469 1468 1466 1464 1463 1462 1460 1459 1458 1456 1455 1454 1452 1451 1449 1448 1446 1444 1442 1441 1439 1438 1436 1435 1434 1432 1431 1430 1429 1428 1427 1426 1425 1424
1514 1514 1513 1512 1510 1509 1508 1507 1506 1505 1504 1502 1501 1500 1499 1497 1496 1495 1493 1492 1490 1489 1487 1485 1484 1482 1480 1479 1477 1475 1474 1472 1470 1469 1467 1466 1464 1463 1462 1460 1459 1457 1456 1454 1453 1452 1450 1449 1448 1446 1444 1443 1441 1439 1438 1436 1434 1433 1432 1430 1429 1428 1426 1425 1424 1424 1423 1421 1420
1513 1512 1511 1510 1509 1508 1507 1505 1504 1503 1502 1500 1499 1498 1497 1495 1494 1493 1491 1489 1488 1487 1485 1483 1481 1479 1478 1476 1474 1473 1471 1469 1468 1466 1464 1463 1461 1460 1459 1457 1455 1454 1452 1451 1450 1449 1447 1446 1444 1443 1441 1439 1438 1436 1434 1433 1431 1429 1428 1427 1425 1424 1423 1422 1421 1420 1419 1418 1417
1512 1510 1509 1508 1507 1506 1505 1504 1502 1501 1500 1499 1497 1496 1494 1493 1492 1490 1489 1487 1486 1484 1482 1480 1479 1477 1475 1473 1472 1470 1468 1466 1465 1463 1461 1459 1458 1456 1455 1454 1452 1450 1449 1447 1446 1445 1444 1443 1441 1439 1438 1436 1434 1433 1431 1429 1428 1426 1424 1423 1421 1420 1419 1418 1417 1416 1415 1414 1413
1510 1509 1508 1507 1505 1504 1503 1502 1500 1499 1498 1496 1495 1494 1492 1491 1489 1488 1487 1485 1483 1482 1480 1478 1476 1474 1472 1470 1469 1467 1465 1463 1462 1460 1458 1456 1454 1453 1451 1450 1449 1447 1445 1444 1443 1442 1440 1439 1438 1436 1434 1433 1431 1429 1428 1426 1424 1422 1420 1419 1418 1416 1415 1414 1413 1412 1411 1410 1409
1508 1507 1506 1505 1504 1502 1501 1500 1499 1497 1496 1494 1493 1492 1490 1489 1487 1485 1484 1482 1480 1479 1477 1475 1473 1471 1469 1468 1466 1464 1462 1460 1458 1456 1455 1453 1451 1450 1448 1447 1445 1444 1442 1441 1440 1439 1437 1435 1434 1432 1431 1429 1427 1426 1424 1423 1421 1419 1417 1415 1413 1412 1411 1409 1409 1407 1406 1405 1404
1506 1505 1504 1503 1502 1500 1499 1498 1496 1495 1494 1492 1491 1489 1488 1486 1484 1483 1481 1479 1478 1476 1474 1472 1470 1468 1466 1464 1462 1460 1459 1456 1454 1453 1451 1450 1449 1447 1445 1444 1442 1441 1439 1438 1437 1435 1434 1433 1431 1429 1427 1426 1424 1422 1421 1419 1417 1415 1413 1411 1409 1408 1406 1405 1404 1403 1402 1401 1400
1505 1504 1502 1501 1500 1499 1497 1496 1494 1493 1491 1490 1488 1486 1485 1483 1481 1479 1478 1476 1474 1473 1471 1469 1467 1465 1463 1461 1459 1457 1455 1454 1452 1450 1448 1446 1445 1444 1442 1441 1439 1437 1436 1434 1434 1432 1431 1430 1428 1426 1424 1423 1421 1420 1418 1417 1415 1414 1411 1409 1408 1406 1404 1402 1401 1400 1399 1398 1397
1503 1501 1500 1499 1498 1496 1495 1494 1492 1490 1489 1487 1485 1484 1482 1480 1478 1476 1474 1473 1471 1469 1468 1465 1464 1461 1459 1457 1455 1454 1452 1450 1449 1447 1445 1443 1442 1440 1439 1437 1435 1434 1432 1431 1430 1429 1428 1427 1425 1424 1422 1421 1419 1418 1416 1414 1413 1411 1409 1408 1406 1404 1402 1400 1398 1397 1396 1395 1394
1501 1499 1498 1497 1495 1494 1493 1491 1489 1488 1486 1484 1482 1481 1479 1477 1475 1473 1471 1469 1468 1466 1464 1462 1460 1458 1456 1454 1452 1451 1449 1448 1446 1444 1442 1440 1439 1437 1435 1434 1432 1430 1429 1428 1427 1426 1425 1424 1423 1421 1420 1419 1417 1415 1414 1411 1409 1408 1406 1404 1403 1401 1399 1397 1396 1395 1394 1393 1392
1499 1497 1496 1494 1493 1491 1490 1489 1487 1485 1483 1481 1479 1478 1476 1474 1472 1470 1469 1466 1464 1463 1461 1459 1457 1455 1454 1451 1449 1448 1446 1444 1443 1441 1439 1437 1435 1434 1432 1430 1429 1427 1426 1425 1424 1423 1422 1421 1420 1419 1418 1416 1414 1413 1411 1409 1407 1405 1403 1401 1400 1398 1397 1395 1394 1393 1392 1391 1390
1496 1495 1493 1492 1490 1489 1487 1486 1484 1482 1480 1479 1477 1475 1473 1471 1469 1467 1465 1464 1462 1460 1458 1456 1454 1453 1451 1449 1447 1445 1443 1441 1440 1438 1436 1434 1433 1431 1429 1428 1426 1425 1424 1423 1422 1420 1419 1418 1417 1415 1414 1413 1412 1410 1408 1406 1404 1402 1400 1399 1397 1395 1394 1393 1392 1391 1390 1389 1388
1494 1492 1491 1489 1487 1486 1484 1483 1481 1479 1477 1475 1474 1472 1470 1468 1466 1464 1463 1461 1459 1457 1455 1454 1451 1449 1448 1446 1444 1442 1440 1438 1437 1435 1434 1432 1430 1428 1427 1425 1424 1422 1421 1420 1419 1417 1416 1415 1414 1412 1411 1410 1409 1408 1406 1404 1402 1400 1398 1396 1394 1393 1392 1390 1389 1388 1387 1386 1385
1491 1490 1488 1486 1484 1483 1481 1479 1478 1476 1474 1473 1471 1469 1467 1465 1464 1462 1460 1458 1456 1454 1452 1450 1449 1446 1444 1443 1441 1439 1438 1436 1434 1433 1431 1429 1428 1425 1424 1423 1421 1419 1418 1417 1416 1414 1413 1412 1411 1409 1409 1408 1406 1405 1403 1401 1399 1397 1395 1393 1391 1390 1389 1388 1387 1386 1385 1384 1383
1489 1487 1485 1483 1482 1480 1478 1477 1475 1474 1472 1470 1468 1466 1464 1463 1461 1459 1457 1455 1453 1451 1449 1447 1445 1444 1442 1440 1439 1437 1435 1434 1432 1430 1429 1427 1425 1423 1421 1419 1418 1417 1415 1414 1413 1412 1410 1409 1408 1407 1406 1405 1403 1402 1400 1398 1396 1394 1392 1390 1388 1387 1386 1385 1384 1383 1382 1381 1381
1486 1484 1482 1481 1479 1477 1475 1474 1473 1471 1469 1467 1465 1464 1462 1459 1458 1456 1454 1452 1450 1449 1446 1444 1443 1441 1439 1438 1436 1434 1432 1431 1429 1427 1425 1424 1422 1420 1419 1417 1415 1414 1413 1411 1410 1409 1408 1407 1405 1404 1403 1402 1400 1398 1396 1394 1393 1391 1389 1387 1385 1384 1383 1383 1381 1380 1379 1379 1378
1483 1481 1480 1478 1476 1475 1473 1472 1470 1468 1466 1464 1463 1461 1459 1457 1455 1453 1451 1449 1448 1446 1444 1442 1441 1439 1437 1435 1433 1431 1429 1427 1426 1424 1423 1421 1420 1418 1416 1414 1413 1411 1410 1409 1407 1406 1405 1404 1403 1401 1400 1399 1397 1395 1393 1391 1389 1387 1386 1384 1383 1382 1381 1380 1379 1378 1377 1376 1375
1481 1479 1478 1476 1474 1473 1471 1469 1468 1466 1464 1462 1460 1458 1456 1454 1453 1451 1449 1447 1445 1443 1441 1439 1438 1436 1434 1432 1431 1429 1427 1425 1423 1422 1420 1419 1417 1415 1413 1412 1410 1409 1407 1406 1404 1404 1403 1401 1400 1398 1397 1395 1394 1392 1389 1388 1386 1384 1383 1381 1380 1379 1378 1377 1376 1375 1374 1373 1372
1479 1477 1476 1474 1472 1470 1469 1467 1465 1463 1461 1459 1457 1455 1454 1452 1450 1448 1447 1444 1443 1440 1439 1437 1435 1433 1431 1429 1428 1426 1425 1423 1421 1419 1418 1417 1415 1413 1411 1409 1407 1406 1404 1403 1402 1401 1399 1398 1397 1395 1394 1393 1391 1389 1387 1385 1383 1382 1380 1379 1378 1377 1375 1374 1373 1372 1371 1370 1369
1477 1476 1474 1472 1470 1468 1466 1464 1463 1461 1459 1457 1455 1453 1451 1449 1447 1446 1444 1442 1440 1438 1436 1434 1433 1431 1429 1427 1425 1424 1422 1421 1419 1417 1415 1414 1413 1411 1408 1406 1404 1403 1402 1400 1399 1398 1397 1395 1394 1393 1391 1390 1388 1386 1384 1383 1381 1379 1378 1377 1375 1374 1374 1372 1371 1370 1369 1367 1366
1475 1474 1472 1470 1468 1466 1464 1462 1460 1458 1456 1454 1453 1451 1449 1447 1445 1443 1442 1440 1438 1435 1433 1431 1430 1428 1426 1425 1423 1421 1419 1418 1417 1415 1413 1411 1410 1409 1406 1404 1401 1400 1399 1398 1396 1395 1394 1393 1392 1390 1389 1388 1386 1384 1382 1381 1379 1377 1376 1374 1373 1372 1371 1370 1369 1368 1366 1365 1364
1473 1472 1470 1468 1465 1464 1462 1460 1458 1456 1454 1452 1450 1449 1447 1445 1443 1441 1439 1438 1436 1434 1431 1429 1427 1426 1424 1423 1421 1419 1417 1415 1414 1413 1411 1409 1407 1406 1404 1402 1399 1397 1396 1395 1394 1393 1391 1390 1389 1388 1387 1385 1384 1382 1380 1379 1377 1375 1374 1372 1371 1370 1369 1368 1367 1365 1364 1363 1362
1471 1469 1467 1465 1464 1461 1459 1458 1456 1454 1452 1450 1448 1446 1444 1443 1441 1439 1437 1435 1434 1432 1430 1428 1425 1424 1422 1420 1419 1416 1414 1412 1411 1410 1409 1406 1404 1403 1402 1399 1397 1395 1394 1393 1392 1390 1389 1388 1387 1386 1384 1383 1382 1380 1378 1376 1375 1373 1372 1370 1369 1368 1366 1365 1364 1363 1362 1361 1360
1469 1467 1465 1463 1461 1459 1457 1455 1453 1452 1450 1448 1446 1444 1442 1440 1439 1437 1435 1433 1432 1430 1428 1426 1423 1421 1419 1418 1416 1414 1411 1409 1408 1407 1406 1404 1402 1400 1399 1397 1395 1393 1391 1390 1389 1388 1387 1386 1384 1384 1382 1381 1380 1378 1377 1375 1374 1372 1370 1369 1368 1366 1364 1363 1362 1361 1360 1359 1357